SCOUT G-1 DEB

Satellite information

Favourite Embed

Satellite Type and Status

DEBRISIN ORBIT

Key statistics

Satellite SCOUT G-1 DEB at a glance.

Uptime

15457

Days in orbit

Revolutions

≈ 14.4

Per day

Orbit

LEO

Low Earth Orbit

Inclination

81.6

Latest

Satellite identification and parameters

Extended collection of information and parameters for SCOUT G-1 DEB.

Object identification

Identified? True

Debris? True

Object name: SCOUT G-1 DEB

International designator: 1983-063D

Object number (NORAD): 14223

Object ID (CCSDS): 14223

Country: UNITED STATES OF AMERICA (US)

Current information (Y/N): Y

RCS size: SMALL

Orbital parameters

Period: 99.913 minutes

Inclination: 81.6497 deg

SMA: 7132.489 km

Apoapsis: 792.165 km

Periapsis: 716.543 km

RAAN: 125.3553 deg

Eccentricy: 0.00530125

Argument of periapsis: 121.6276 deg

Mean anomaly: 335.632 deg

Mean motion: 14.41256002 rev/day

Mean motion (dot): 0.00001507 rev/day2

B* drag term: 0.00045440892 1/REarth

Two-line elements (TLE)

Creation date: Oct. 21, 2025, 3:26 a.m.

Reference frame: TEME

Reference center: EARTH

Epoch: Oct. 20, 2025, 9:28 p.m. UTC

TLE line 0: 0 SCOUT G-1 DEB

TLE line 1: 1 14223U 83063D 25293.89459529 .00001507 00000-0 45441-3 0 9998

TLE line 2: 2 14223 81.6497 125.3553 0053012 121.6276 335.6320 14.41256002210942

Live tracking on map

Real-time ground track for satellite SCOUT G-1 DEB.

In-orbit conjunctions

A list of the most updated potential collisions computed for object SCOUT G-1 DEB.

Target Orbit TCA Probability of collision Miss distance Type
COSMOS 494 LEO 2025-04-23 11:00:50 0.0002580368 405.0 (m) PAYLOAD
NOAA 17 DEB SSO 2024-11-11 23:27:52 0.0007601854 150.0 (m) DEBRIS
CZ-6A DEB LEO 2024-11-10 16:36:53 0.000682413 916.0 (m) DEBRIS
CZ-6A DEB LEO 2024-11-09 18:56:10 0.0003410579 263.0 (m) DEBRIS
COSMOS 1275 DEB LEO 2024-09-28 00:20:02 0.0004921498 63.0 (m) DEBRIS

Associated space launch

Refurbished Transit-O 16 satellite used to carry remote-sensing experiments and in situ measurements

SCOUT G-1 DEB was lifted into orbit during the mission ‘Scout D-1 | HILAT’, on board a Scout D-1 space rocket.

The launch took place on June 27, 1983, 3:37 p.m. from Space Launch Complex 5.

For more information about the launch, click the button.

Launch to space Scout D-1 | HILAT
Scout D-1 | HILAT

Agency: N/A

Status: Launch Successful

Launch date: June 27, 1983, 3:37 p.m. UTC

Rocket: Scout D-1

Launch pad: Space Launch Complex 5

Location: Vandenberg SFB, CA, USA

...

Latest news about this satellite

There are no fresh news available about this satellite. Check back as we update our databases every day.


Newsletter sign-up

Weekly statistics, charts and insights to help you stay on top of the space industry.